Simultaneous Nadir Overpasses (SNOs) Predictions

Prediction of SNOs between GOES-15 and NPP Satellite Orbit:

Table of predicted SNOs for the next 14.0 days since TLE Epoch: 7/25/2014
Index Date Time (GOES-15) GOES-15 Lat,Lon NPP Lat,Lon Distance(km) Time Diff (sec)
1 07/25/2014 22:47:51 0.21,-135.39 -0.64,-139.12 424.50 80
2 07/26/2014 22:31:49 0.20,-135.41 0.40,-134.59 93.85 80
3 07/29/2014 10:34:56 -0.21,-135.44 -0.26,-135.34 12.82 80
4 07/31/2014 22:35:32 0.22,-135.49 0.09,-136.11 70.44 80
5 08/01/2014 22:19:29 0.21,-135.50 1.07,-131.57 447.16 80
6 08/03/2014 10:38:40 -0.23,-135.50 0.06,-136.85 153.57 80
7 08/04/2014 10:22:37 -0.23,-135.51 -0.93,-132.32 363.50 80
8 08/05/2014 22:41:56 0.24,-135.53 -0.22,-137.63 239.14 80
9 08/06/2014 22:25:52
